FENGYUN 1C DEB, 29911

Orbit data source: Space-Track

FENGYUN 1C DEB, 29911 is space debris in SSO originally from a launch on Mon, 10 May 1999 UTC launched from the Taiyaun Space Center, China (TSC). Fengyun 1C debris stems from the Chinese weather satellite Fengyun-1C, which was intentionally destroyed by a Chinese anti-satellite missile in 2007. This event dramatically increased the amount of space debris, with thousands of trackable fragments posing hazards to satellites and human spaceflight. The Fengyun 1C debris cloud has become a focal point in discussions about space sustainability and the need for international regulations to prevent the creation of new debris.

Loading next visibility...
Identifier
29911, 1999-025HH
Orbit
SSO
Country
Flag of CNCN / PRC
Related business
Manufacturer
Unknown
Mission
Spacecraft
Bus & Motor
Unknown
Mass
Unknown
Launch date (UTC)
1999-05-10 (27 years ago)
Launch vehicle
Unknown
Launch site
Taiyaun Space Center, China (TSC)
Object type
Payload
Rocket body
Debris
Shape & HBR
Unknown shape, 0.2 m
Radar Cross Section
Medium (>0.1 m² and <1 m²)

Expand to show TLE details & history
Last TLE update: 14 hours ago

TLE from 14 hours ago
0 FENGYUN 1C DEB
1 29911U 99025HH  26238.37051968  .00000984  00000-0  48556-3 0  9999
2 29911  98.6914 281.8956 0027304 132.2187 241.6744 14.19535206 10702
Epoch: 2026-08-26T08:53Z
TLE epoch observation values (Epoch: 2026-08-26T08:53:32.900Z)
Latitude
13.42494°
Longitude
171.80398°
Altitude
838.472 km
Speed
7.43 km/s
True Right ascension
18h 39m 15s
True Declination
13° 20' 54"
Sunlit
Object was in full shadow at epoch
Visualization orbit readout
Latitude
Unknown
Longitude
Unknown
Altitude
Unknown
Speed
Unknown
Apparent Right ascension
Unknown
Apparent Declination
Unknown
Sunlit
N/A
Visualization observer readout
Local Sidereal Time
14:40:30
Azimuth
Unknown
Elevation
Unknown
Doppler factor
Unknown
Orbital elements
Apogee altitude
843.748 km
Perigee altitude
804.418 km
Semi-major axis
7,202.22 km
Eccentricity
0.00273
Inclination
98.6914°
RAAN
281.8956°
Arg. of periapsis
132.2187°
True anomaly
241.39943°
Mean anomaly
241.6744°
Eccentric anomaly
241.53687°
Mean motion
3.55094 °/min
Orbital period
101.38 mins
BSTAR
0.00048556
Loading maneuver chart data...
Computing Atmospheric mass density...
Loading historical data...
Loading historical data...
Loading historical data...
Loading historical data...
Loading historical data...
Loading historical data...
Loading historical data...

Documentation

Showing up to 5 results
|